Regional Weather Roundup
Issued by NWS

Home | Current Version | Previous Version | Text Only | Print | Product List | Glossary Off
Versions: 1 2 3 4 5 6 7 8 9 10 11 12 13 14 15 16 17 18 19 20 21 22 23 24 25 26 27 28 29 30 31 32 33 34 35 36 37 38 39 40 41 42 43 44 45 46 47 48 49 50

000
ASUS43 KLSX 210157
RWRMO

WEATHER SUMMARY FOR MISSOURI
NATIONAL WEATHER SERVICE SPRINGFIELD MO
900 PM CDT FRI OCT 20 2017

NOTE: "FAIR" INDICATES FEW OR NO CLOUDS BELOW 12,000 FEET WITH NO
       SIGNIFICANT WEATHER AND/OR OBSTRUCTIONS TO VISIBILITY.
       CURRENT SKY AND/OR WEATHER CONDITIONS ARE NOT AVAILABLE FOR
       CHILLICOTHE AND FARMINGTON.

MOZ001>031-035>038-043-044-053-054-210300-
...NORTHERN AND WESTERN MISSOURI...

CITY           SKY/WX    TMP DP  RH WIND       PRES   REMARKS
KANSAS CTY INT PTCLDY    67  56  67 S20G26    29.85F
LEE`S SUMMIT   CLEAR     66  56  70 S14       29.88F
ST JOSEPH      LGT RAIN  68  58  70 S12G23    29.83S
CHILLICOTHE      N/A     66  54  65 SE8       29.90F

$$
MOZ066>068-077>081-088>096-101>105-210300-
...SOUTHWEST MISSOURI...

CITY           SKY/WX    TMP DP  RH WIND       PRES   REMARKS
SPRINGFIELD    PTCLDY    65  60  84 S20G28    29.98S
JOPLIN         CLEAR     66  59  78 S13       29.93S
BRANSON        PTCLDY    63  59  88 SE12      30.03S

$$
MOZ032>034-039>042-045>050-055>058-069>072-210300-
...CENTRAL MISSOURI...

CITY           SKY/WX    TMP DP  RH WIND       PRES   REMARKS
COLUMBIA       NOT AVBL
JEFFERSON CITY CLOUDY    68  52  56 SE8       29.98S
ROLLA          MOCLDY    66  54  65 S13       30.02F
SEDALIA        MOCLDY    66  57  72 SE17G24   29.95S
WARRENSBURG    CLEAR     63  54  72 SE10      29.90F

$$
MOZ051-052-059>065-210300-
...EAST CENTRAL MISSOURI...

CITY           SKY/WX    TMP DP  RH WIND       PRES   REMARKS
ST LOUIS INTL  NOT AVBL

$$
MOZ072>076-082>087-097>100-106>115-210300-
...SOUTH CENTRAL AND SOUTHEAST MISSOURI...

CITY           SKY/WX    TMP DP  RH WIND       PRES   REMARKS
CAPE GIRARDEAU CLOUDY    63  50  62 SE8       30.11R
POPLAR BLUFF   PTCLDY    62  52  69 SE3       30.09R
WEST PLAINS    PTCLDY    66  55  67 S10       30.08S

$$



USA.gov is the U.S. government's official web portal to all federal, state and local government web resources and services.